COSMOS 1275 DEB, 12720

Orbit data source: Space-Track

COSMOS 1275 DEB, 12720 is space debris in LEO originally from a launch on Thu, 04 Jun 1981 UTC launched from the Plesetsk Missile And Space Complex (PKMTR). Debris objects in space refer to the collection of defunct objects orbiting the Earth. Examples of debris include non-operational satellites, rocket bodies, and fragments generated from explosions, collisions, or faulty payload assembly.

Loading next visibility...
Identifier
12720, 1981-053BM
Orbit
LEO
Country
Flag of CISCIS
Related business
Manufacturer
Unknown
Mission
Spacecraft
Bus & Motor
Unknown
Mass
Unknown
Launch date (UTC)
1981-06-04 (45 years ago)
Launch vehicle
Unknown
Launch site
Plesetsk Missile And Space Complex (PKMTR)
Object type
Payload
Rocket body
Debris
Shape & HBR
Unknown shape, 0.1 m
Radar Cross Section
Small (<0.1 m²)

Expand to show TLE details & history
Last TLE update: 10 hours ago

TLE from 10 hours ago
0 COSMOS 1275 DEB
1 12720U 81053BM  26095.16253756  .00001700  00000-0  13568-2 0  9999
2 12720  83.2481 121.0953 0112143  25.8677  41.8146 13.87537830 99511
Epoch: 2026-04-05T03:54Z
TLE epoch observation values (Epoch: 2026-04-05T03:54:03.245Z)
Latitude
67.63953°
Longitude
-114.2543°
Altitude
888.247 km
Speed
7.445 km/s
True Right ascension
09h 10m 55s
True Declination
67° 31' 14"
Sunlit
Object was in daylight at epoch
Visualization orbit readout
Latitude
Unknown
Longitude
Unknown
Altitude
Unknown
Speed
Unknown
Apparent Right ascension
Unknown
Apparent Declination
Unknown
Sunlit
N/A
Visualization observer readout
Local Sidereal Time
20:17:26
Azimuth
Unknown
Elevation
Unknown
Doppler factor
Unknown
Orbital elements
Apogee altitude
1,016.396 km
Perigee altitude
852.387 km
Semi-major axis
7,312.529 km
Eccentricity
0.01121
Inclination
83.2481°
RAAN
121.0953°
Arg. of periapsis
25.8677°
True anomaly
42.68039°
Mean anomaly
41.8146°
Eccentric anomaly
42.24659°
Mean motion
3.4709 °/min
Orbital period
103.72 mins
BSTAR
0.0013568
Loading maneuver chart data...
Computing Atmospheric mass density...

Documentation

Showing up to 5 results
|